This is the latest recevied weather packets stored in our database for station/object AE0NK. If no packets are shown the sender has not sent any weather packets the latest 10 day(s).
| Time | Temp. | Humidity | Pressure | Rain* | Wind** | Luminosity | Snow |
|---|---|---|---|---|---|---|---|
| 1778022501 | 15° C | 35% | 1008.8 hPa | 0 mm | - | 120 W/m² | - |
| 1778022199 | 15° C | 34% | 1008.9 hPa | 0 mm | - | 146 W/m² | - |
| 1778021893 | 15° C | 38% | 1008.9 hPa | 0 mm | - | 221 W/m² | - |
| 1778021592 | 15° C | 37% | 1008.7 hPa | 0 mm | - | 278 W/m² | - |
| 1778021309 | 15° C | 38% | 1008.8 hPa | 0 mm | - | 309 W/m² | - |
| 1778021007 | 15° C | 37% | 1009 hPa | 0 mm | - | 327 W/m² | - |
| 1778020707 | 14.44° C | 36% | 1009 hPa | 0 mm | - | 299 W/m² | - |
| 1778020405 | 15° C | 37% | 1008.9 hPa | 0 mm | - | 213 W/m² | - |
| 1778020104 | 15° C | 37% | 1008.9 hPa | 0 mm | - | 197 W/m² | - |
| 1778019801 | 15° C | 36% | 1009 hPa | 0 mm | - | 181 W/m² | - |
| 1778019499 | 15° C | 34% | 1008.9 hPa | 0 mm | - | 202 W/m² | - |
| 1778019199 | 15° C | 36% | 1009.1 hPa | 0 mm | - | 341 W/m² | - |
| 1778018918 | 15° C | 37% | 1009.1 hPa | 0 mm | - | 299 W/m² | - |
| 1778018609 | 15° C | 37% | 1009 hPa | 0 mm | - | 371 W/m² | - |
| 1778018303 | 14.44° C | 36% | 1009.2 hPa | 0 mm | - | 547 W/m² | - |
| 1778018002 | 14.44° C | 36% | 1009.4 hPa | 0 mm | - | 204 W/m² | - |
| 1778017699 | 15° C | 38% | 1009.5 hPa | 0 mm | - | 394 W/m² | - |
| 1778017397 | 14.44° C | 36% | 1009.4 hPa | 0 mm | - | 216 W/m² | - |
| 1778017093 | 14.44° C | 39% | 1009.6 hPa | 0 mm | - | 401 W/m² | - |
| 1778016792 | 14.44° C | 41% | 1009.6 hPa | 0 mm | - | 287 W/m² | - |
| 1778016510 | 13.89° C | 40% | 1009.7 hPa | 0 mm | - | 281 W/m² | - |
| 1778016208 | 13.89° C | 40% | 1009.7 hPa | 0 mm | - | 272 W/m² | - |
| 1778015907 | 13.89° C | 39% | 1009.8 hPa | 0 mm | - | 209 W/m² | - |
| 1778015608 | 13.89° C | 39% | 1009.7 hPa | 0 mm | - | 171 W/m² | - |
| 1778015307 | 13.89° C | 41% | 1009.7 hPa | 0 mm | - | 155 W/m² | - |
* Rain latest hour (hover to see other rain measurements)
** Current wind speed in m/s (hover to see current wind gust speed)